KC5AYO Weather Reports


Display with metric or nautical units.
time (UTC)temp
F
wind
direction
speed
MPH
gust
MPH
rain 1hr
in
rain 24hr
in
rain mn
in
humidity
%
barometer
mb
20260505125005 58 207 0.0 2.0 0.00 0.59 0.59 93 1006.8
20260505124504 58 215 0.0 2.0 0.00 0.59 0.59 94 1006.7
20260505124003 57 234 0.0 2.0 0.00 0.59 0.59 93 1006.7
20260505123501 57 216 0.0 2.0 0.00 0.59 0.59 93 1006.7
20260505123000 57 171 0.0 0.0 0.00 0.59 0.59 93 1006.6
20260505122602 57 171 0.0 2.0 0.00 0.59 0.59 93 1006.7
20260505122059 57 179 0.0 2.0 0.00 0.59 0.59 93 1006.6
20260505121559 57 248 0.0 2.0 0.00 0.59 0.59 93 1006.7
20260505121200 57 217 0.0 2.0 0.00 0.59 0.59 94 1006.7
20260505120558 57 163 0.0 1.0 0.00 0.59 0.59 94 1006.6
20260505120114 57 163 0.0 2.0 0.00 0.59 0.59 94 1006.5
20260505115555 56 169 0.0 2.0 0.00 0.59 0.59 94 1006.2
20260505115058 56 161 0.0 2.0 0.00 0.59 0.59 94 1006.3
20260505114554 56 166 0.0 2.0 0.00 0.59 0.59 94 1006.2
20260505114053 56 231 0.0 2.0 0.01 0.59 0.59 94 1006.2
20260505113552 56 184 0.0 2.0 0.01 0.59 0.59 94 1006.1
20260505113054 56 159 0.0 3.0 0.01 0.59 0.59 94 1006.0
20260505112554 56 117 0.0 3.0 0.01 0.59 0.59 94 1006.2
20260505112049 56 172 0.0 2.0 0.01 0.59 0.59 94 1006.4
20260505111549 56 104 0.0 2.0 0.01 0.59 0.59 94 1006.4
20260505111049 56 136 0.0 2.0 0.01 0.59 0.59 94 1006.3
20260505110549 56 136 0.0 2.0 0.01 0.59 0.59 94 1006.9
20260505102046 57 179 0.0 2.0 0.02 0.57 0.57 94 1007.0
20260505101547 57 188 0.0 2.0 0.02 0.57 0.57 94 1006.5
20260505101050 57 175 0.0 2.0 0.04 0.57 0.57 94 1006.4
20260505100546 56 154 0.0 2.0 0.05 0.57 0.57 94 1006.2
20260505100048 56 204 0.0 2.0 0.08 0.57 0.57 94 1006.2
20260505095546 56 208 0.0 2.0 0.10 0.57 0.57 94 1006.3
20260505095046 56 242 0.0 2.0 0.12 0.57 0.57 94 1006.4
20260505094545 57 178 0.0 0.0 0.15 0.57 0.57 93 1006.5
20260505094045 57 282 0.0 0.0 0.16 0.56 0.56 93 1006.6
20260505093545 57 329 0.0 0.0 0.18 0.56 0.56 93 1006.9
20260505093044 57 319 0.0 0.0 0.19 0.56 0.56 93 1007.2
20260505092544 57 319 0.0 0.0 0.21 0.56 0.56 93 1007.5
20260505092045 57 319 0.0 0.0 0.22 0.56 0.56 93 1007.6
20260505091544 57 319 0.0 0.0 0.22 0.55 0.55 93 1007.8
20260505091043 57 319 0.0 0.0 0.22 0.54 0.54 93 1008.1
20260505090543 57 318 0.0 0.0 0.22 0.52 0.52 93 1008.3
20260505090042 57 318 0.0 0.0 0.22 0.50 0.50 92 1008.3
20260505085543 57 317 0.0 0.0 0.24 0.47 0.47 92 1008.4
20260505085041 57 317 0.0 0.0 0.28 0.45 0.45 92 1008.7
20260505084541 57 317 0.0 2.0 0.28 0.43 0.43 92 1008.7
20260505084040 58 317 0.0 2.0 0.36 0.41 0.41 92 1008.7
20260505083545 58 336 0.0 2.0 0.39 0.39 0.39 91 1008.5
20260505083039 58 331 0.0 2.0 0.37 0.37 0.37 91 1008.5
20260505082538 58 332 0.0 2.0 0.35 0.35 0.35 91 1008.5
20260505082038 58 343 0.0 2.0 0.34 0.34 0.34 91 1008.4
20260505081543 58 310 0.0 2.0 0.33 0.33 0.33 91 1008.2
20260505081037 58 321 0.0 2.0 0.32 0.32 0.32 90 1008.0
20260505080538 58 339 0.0 2.0 0.30 0.30 0.30 90 1007.9
20260505080037 58 311 0.0 3.0 0.27 0.27 0.27 89 1007.7
20260505075532 59 280 0.0 8.0 0.22 0.22 0.22 87 1007.7
20260505075032 59 313 0.0 8.0 0.17 0.17 0.17 86 1007.3
20260505074530 60 9 0.0 6.0 0.12 0.12 0.12 83 1006.6
20260505074028 62 344 2.0 10.0 0.03 0.03 0.03 77 1006.6
20260505073527 64 9 2.0 8.0 0.00 0.00 0.00 69 1006.2
20260505073034 66 11 2.0 5.0 0.00 0.00 0.00 63 1005.7
20260505072524 66 10 0.0 2.0 0.00 0.00 0.00 62 1004.7
20260505072022 66 86 0.0 2.0 0.00 0.00 0.00 61 1004.4
20260505071542 67 83 0.0 2.0 0.00 0.00 0.00 59 1004.5
20260505071022 68 61 0.0 2.0 0.00 0.00 0.00 58 1004.6
20260505070522 69 70 0.0 2.0 0.00 0.00 0.00 52 1004.8
20260505070020 69 277 0.0 3.0 0.00 0.00 0.00 53 1004.9
20260505065519 69 347 0.0 4.0 0.00 0.00 0.00 52 1004.8
20260505065019 69 317 0.0 4.0 0.00 0.00 0.00 52 1004.8
20260505064523 69 175 0.0 5.0 0.00 0.00 0.00 52 1004.7
20260505064021 69 171 1.0 4.0 0.00 0.00 0.00 52 1004.5
20260505063517 69 298 0.0 9.0 0.00 0.00 0.00 52 1004.2
20260505063016 69 360 0.0 9.0 0.00 0.00 0.00 52 1004.3
20260505062516 69 150 1.0 9.0 0.00 0.00 0.00 52 1004.0
20260505062015 69 190 1.0 6.0 0.00 0.00 0.00 53 1004.1
20260505061515 69 111 0.0 3.0 0.00 0.00 0.00 52 1004.0
20260505061021 68 210 0.0 12.0 0.00 0.00 0.00 54 1004.1
20260505060512 68 323 0.0 12.0 0.00 0.00 0.00 53 1004.0
20260505060013 68 85 0.0 5.0 0.00 0.00 0.00 54 1004.1
20260505055511 68 171 0.0 7.0 0.00 0.00 0.00 53 1004.2
20260505055011 68 254 1.0 7.0 0.00 0.00 0.00 53 1004.2
20260505054510 67 167 0.0 5.0 0.00 0.00 0.00 54 1004.2
20260505054011 67 139 0.0 2.0 0.00 0.00 0.00 54 1004.1
20260505053510 67 196 0.0 4.0 0.00 0.00 0.00 54 1004.2
20260505053012 67 77 0.0 4.0 0.00 0.00 0.00 54 1004.2
20260505052513 67 173 0.0 2.0 0.00 0.00 0.00 55 1004.2
20260505052009 67 126 0.0 2.0 0.00 0.00 0.00 54 1004.2
20260505051511 67 215 0.0 3.0 0.00 0.00 0.00 55 1004.1
20260505051011 67 192 0.0 3.0 0.00 0.00 0.00 55 1004.1
20260505050509 67 279 0.0 3.0 0.00 0.00 0.00 54 1004.0
20260505041504 67 207 0.0 3.0 0.00 0.00 0.00 56 1003.9
20260505041001 67 151 0.0 3.0 0.00 0.00 0.00 56 1003.8
20260505040602 66 190 0.0 3.0 0.00 0.00 0.00 56 1003.7
20260505040106 66 202 0.0 6.0 0.00 0.00 0.00 56 1003.8
20260505035559 66 153 0.0 6.0 0.00 0.00 0.00 57 1003.8
20260505035100 66 105 0.0 2.0 0.00 0.00 0.00 57 1004.0
20260505034600 66 143 0.0 4.0 0.00 0.00 0.00 57 1004.1
20260505034059 66 195 0.0 4.0 0.00 0.00 0.00 58 1004.2
20260505033559 66 192 0.0 2.0 0.00 0.00 0.00 58 1004.2
20260505033101 66 186 0.0 2.0 0.00 0.00 0.00 58 1004.4
20260505032559 66 102 0.0 2.0 0.00 0.00 0.00 58 1004.4
20260505032058 66 134 0.0 2.0 0.00 0.00 0.00 58 1004.5
20260505031600 67 178 0.0 2.0 0.00 0.00 0.00 58 1004.6
20260505031058 67 191 0.0 2.0 0.00 0.00 0.00 58 1004.8
20260505030558 67 171 0.0 2.0 0.00 0.00 0.00 57 1004.9
20260505030104 67 5 0.0 2.0 0.00 0.00 0.00 58 1004.9
20260505025559 67 171 0.0 2.0 0.00 0.00 0.00 58 1004.8
20260505025058 66 169 0.0 1.0 0.00 0.00 0.00 58 1004.9
20260505024558 67 133 0.0 1.0 0.00 0.00 0.00 58 1004.8
20260505024057 67 130 0.0 2.0 0.00 0.00 0.00 58 1004.8
20260505023557 67 134 0.0 2.0 0.00 0.00 0.00 58 1004.6
20260505023107 67 184 0.0 2.0 0.00 0.00 0.00 57 1004.6
20260505022557 67 186 0.0 2.0 0.00 0.00 0.00 57 1004.4
20260505022057 68 192 0.0 2.0 0.00 0.00 0.00 56 1004.3
20260505021600 68 221 0.0 2.0 0.00 0.00 0.00 56 1004.3
20260505021056 68 212 0.0 2.0 0.00 0.00 0.00 55 1004.1
20260505020556 68 241 0.0 3.0 0.00 0.00 0.00 54 1004.1
20260505020058 69 228 0.0 3.0 0.00 0.00 0.00 55 1004.0
20260505015556 69 142 0.0 2.0 0.00 0.00 0.00 54 1004.0
20260505015059 69 161 0.0 4.0 0.00 0.00 0.00 54 1003.9
20260505014556 69 135 0.0 4.0 0.00 0.00 0.00 53 1003.5
20260505014055 69 208 0.0 3.0 0.00 0.00 0.00 53 1003.4
20260505013555 69 207 0.0 3.0 0.00 0.00 0.00 52 1003.4
20260505013055 70 221 0.0 2.0 0.00 0.00 0.00 53 1003.3
20260505012555 70 189 0.0 2.0 0.00 0.00 0.00 52 1003.2
20260505012058 70 199 0.0 2.0 0.00 0.00 0.00 52 1003.2
20260505011556 70 202 0.0 2.0 0.00 0.00 0.00 51 1003.0
20260505011057 70 167 0.0 2.0 0.00 0.00 0.00 51 1002.9
20260505010554 71 97 0.0 2.0 0.00 0.00 0.00 50 1002.7
20260505005554 71 203 0.0 3.0 0.00 0.00 0.00 50 1002.7
20260505005055 71 123 0.0 2.0 0.00 0.00 0.00 50 1002.8
20260505004554 71 244 0.0 3.0 0.00 0.00 0.00 50 1002.8
20260505004053 72 163 0.0 3.0 0.00 0.00 0.00 49 1002.8
20260505003557 72 167 0.0 2.0 0.00 0.00 0.00 49 1002.8
20260505003057 72 173 0.0 2.0 0.00 0.00 0.00 49 1002.7
20260505002555 72 209 0.0 3.0 0.00 0.00 0.00 50 1002.7
20260505002052 73 202 0.0 3.0 0.00 0.00 0.00 48 1002.9
20260505001552 73 116 0.0 3.0 0.00 0.00 0.00 47 1002.9
20260505001051 73 232 0.0 2.0 0.00 0.00 0.00 47 1002.9
20260505000551 73 188 0.0 8.0 0.00 0.00 0.00 48 1002.9
20260505000100 74 121 0.0 8.0 0.00 0.00 0.00 47 1003.0
20260504235551 74 176 0.0 5.0 0.00 0.00 0.00 47 1003.0
20260504235052 74 9 0.0 5.0 0.00 0.00 0.00 46 1003.0
20260504234550 74 169 0.0 6.0 0.00 0.00 0.00 46 1003.0
20260504234052 74 188 1.0 6.0 0.00 0.00 0.00 48 1003.1
20260504233549 74 272 0.0 5.0 0.00 0.00 0.00 47 1003.2
20260504233052 74 257 1.0 4.0 0.00 0.00 0.00 46 1003.4
20260504232548 74 235 1.0 3.0 0.00 0.00 0.00 45 1003.3
20260504232052 74 113 0.0 5.0 0.00 0.00 0.00 46 1003.3
20260504231547 75 180 0.0 7.0 0.00 0.00 0.00 45 1003.7
20260504231046 75 233 0.0 9.0 0.00 0.00 0.00 46 1003.6
20260504230549 75 134 2.0 9.0 0.00 0.00 0.00 47 1003.8
20260504230044 75 278 1.0 7.0 0.00 0.00 0.00 46 1004.0
20260504225545 75 150 0.0 8.0 0.00 0.00 0.00 47 1004.2
20260504225048 75 169 0.0 11.0 0.00 0.00 0.00 47 1004.2
20260504224545 75 129 2.0 11.0 0.00 0.00 0.00 43 1004.2
20260504224045 75 186 1.0 6.0 0.00 0.00 0.00 45 1004.3
20260504223542 75 279 1.0 6.0 0.00 0.00 0.00 46 1004.3
20260504223041 75 298 0.0 3.0 0.00 0.00 0.00 45 1004.4
20260504222541 75 255 0.0 5.0 0.00 0.00 0.00 45 1004.4
20260504222041 75 246 1.0 11.0 0.00 0.00 0.00 44 1004.5
20260504221543 75 144 2.0 11.0 0.00 0.00 0.00 42 1004.6
20260504221040 76 194 0.0 6.0 0.00 0.00 0.00 44 1004.6
20260504220540 76 227 1.0 6.0 0.00 0.00 0.00 42 1004.6
20260504220048 76 292 1.0 6.0 0.00 0.00 0.00 43 1004.6
20260504215541 75 136 1.0 9.0 0.00 0.00 0.00 41 1004.6
20260504215040 75 266 1.0 9.0 0.00 0.00 0.00 41 1004.5
20260504214548 75 128 0.0 10.0 0.00 0.00 0.00 43 1004.6
20260504214038 75 159 0.0 10.0 0.00 0.00 0.00 41 1004.7
20260504213538 75 190 0.0 10.0 0.00 0.00 0.00 41 1004.6
20260504213047 75 309 1.0 12.0 0.00 0.00 0.00 39 1004.7
20260504212535 76 317 2.0 12.0 0.00 0.00 0.00 39 1004.8
20260504212036 76 197 2.0 11.0 0.00 0.00 0.00 41 1005.0
20260504211537 76 261 0.0 6.0 0.00 0.00 0.00 43 1004.9
20260504211035 76 240 1.0 7.0 0.00 0.00 0.00 41 1005.0
20260504210535 76 182 1.0 10.0 0.00 0.00 0.00 42 1004.8
20260504210035 76 285 3.0 11.0 0.00 0.00 0.00 40 1004.9
20260504205535 76 5 2.0 12.0 0.00 0.00 0.00 43 1004.9
20260504205034 77 258 2.0 9.0 0.00 0.00 0.00 40 1004.9
20260504204533 77 256 2.0 9.0 0.00 0.00 0.00 47 1004.9
20260504204033 77 157 0.0 8.0 0.00 0.00 0.00 45 1004.9
20260504203532 77 229 1.0 8.0 0.00 0.00 0.00 45 1005.0
20260504203032 77 213 0.0 3.0 0.00 0.00 0.00 48 1005.1
20260504202530 76 331 0.0 2.0 0.00 0.00 0.00 50 1005.2
20260504202029 75 137 0.0 2.0 0.00 0.00 0.00 52 1005.4
20260504201528 75 263 0.0 2.0 0.00 0.00 0.00 52 1005.6
20260504201027 75 140 0.0 2.0 0.00 0.00 0.00 50 1005.7
20260504200526 75 130 0.0 2.0 0.00 0.00 0.00 49 1005.7
20260504200037 75 280 0.0 2.0 0.00 0.00 0.00 51 1005.9
20260504195525 75 275 0.0 3.0 0.00 0.00 0.00 48 1005.8
20260504195025 75 238 0.0 3.0 0.00 0.00 0.00 49 1005.8
20260504194525 76 184 0.0 3.0 0.00 0.00 0.00 47 1006.1
20260504194027 75 293 0.0 3.0 0.00 0.00 0.00 48 1006.0
20260504193524 75 275 0.0 3.0 0.00 0.00 0.00 47 1006.1
20260504193022 75 131 0.0 2.0 0.00 0.00 0.00 48 1006.2
20260504192520 75 150 0.0 4.0 0.00 0.00 0.00 51 1006.4
20260504192019 74 288 1.0 4.0 0.00 0.00 0.00 51 1006.4
20260504191532 74 264 0.0 2.0 0.00 0.00 0.00 55 1006.4
20260504191018 73 285 0.0 2.0 0.00 0.00 0.00 55 1006.5
20260504190516 72 299 0.0 2.0 0.00 0.00 0.00 56 1006.6
20260504190014 72 215 0.0 2.0 0.00 0.00 0.00 54 1006.7
20260504185513 71 267 0.0 2.0 0.00 0.00 0.00 58 1006.9
20260504185012 70 186 0.0 2.0 0.00 0.00 0.00 59 1006.9
20260504184514 70 208 0.0 4.0 0.00 0.00 0.00 57 1007.1
20260504184011 70 241 0.0 3.0 0.00 0.00 0.00 60 1007.2
20260504183511 69 60 0.0 3.0 0.00 0.00 0.00 62 1007.4
20260504183022 69 294 0.0 5.0 0.00 0.00 0.00 62 1007.3
20260504182509 69 228 0.0 5.0 0.00 0.00 0.00 60 1007.5
20260504182009 69 339 0.0 4.0 0.00 0.00 0.00 63 1007.5
20260504181509 69 290 0.0 5.0 0.00 0.00 0.00 61 1007.4
20260504181008 69 182 0.0 5.0 0.00 0.00 0.00 61 1007.4
20260504180511 68 267 0.0 2.0 0.00 0.00 0.00 62 1007.5
20260504180007 68 183 0.0 2.0 0.00 0.00 0.00 63 1007.5
20260504175507 67 171 0.0 2.0 0.00 0.00 0.00 63 1007.5
20260504175007 67 272 0.0 2.0 0.00 0.00 0.00 63 1007.5
20260504174507 67 269 0.0 0.0 0.00 0.00 0.00 64 1007.5
20260504174007 67 187 0.0 0.0 0.00 0.00 0.00 65 1007.6
20260504173508 67 186 0.0 2.0 0.00 0.00 0.00 66 1007.6
20260504173006 67 151 0.0 2.0 0.00 0.00 0.00 64 1007.5
20260504172509 67 172 0.0 2.0 0.00 0.00 0.00 62 1007.2
20260504172007 68 219 0.0 3.0 0.00 0.00 0.00 62 1007.1
20260504171506 68 132 0.0 7.0 0.00 0.00 0.00 60 1007.1
20260504171008 68 146 1.0 7.0 0.00 0.00 0.00 61 1007.3
20260504170505 68 262 0.0 6.0 0.00 0.00 0.00 60 1007.3
20260504151050 66 106 0.0 2.0 0.00 0.00 0.00 68 1007.0
20260504150549 65 234 0.0 1.0 0.00 0.00 0.00 69 1007.3
20260504141040 62 148 0.0 2.0 0.00 0.00 0.00 71 1007.7
20260504140539 62 288 0.0 2.0 0.00 0.00 0.00 72 1007.8